SCP
0 0 0 0 0 0 0 0 0 0 0 0 0 0 0 0 0 0 0 0 0 0 0 0 0 0 0 0 0 0 0 0 0 0 0 0 0 1 0 1 0 0 1 0
0 0 0 0 0 0 0 -0 0 0 0 -0 0 0 0 0 0 0 0 0 0 0 0 0 0 0 0 0 0 0 0 0 0 0 0 0 0 0 1 0 0 0 0 1
0 0 0 0 0 0 0 0 0 0 0 0 0 0 0 0 0 0 0 0 0 0 0 0 0 0 0 0 0 0 0 0 0 0 0 0 0 0 1 1 1 1 1 0
0 0 0 0 0 0 0 0 0 0 0 0 0 0 0 0 0 0 0 0 0 0 0 0 0 0 0 0 0 0 0 0 0 0 0 0 0 0 0 0 1 1 1 1
0 0 0 0 0 0 0 0 0 0 0 0 0 0 0 0 0 0 0 0 0 0 0 0 0 0 0 0 0 0 0 0 0 0 0 0 0 0 0 0 0 1 1 1
0 0 0 0 0 0 0 0 0 0 0 0 0 0 0 0 0 0 0 0 0 0 0 0 0 0 0 -0 0 0 0 0 0 0 0 0 0 0 0 0 0 0 0 1
0 0 0 0 0 0 0 0 0 0 0 -0 0 0 0 0 0 0 0 0 0 0 0 0 0 -0 -0 0 -0 -0 0 0 0 0 0 0 0 0 0 0 0 0 0 1
0 0 0 0 0 0 -0 0 0 -0 -0 0 0 0 0 0 0 0 0 0 0 0 0 0 0 0 0 0 0 0 0 0 0 0 0 0 0 0 0 0 0 0 0 0
0 0 0 0 0 -0 0 -0 -0 -0 -0 0 0 0 0 0 0 -0 -0 -0 -0 -0 0 0 0 0 0 0 0 0 0 0 0 0 0 0 0 0 0 0 0 0 0 0
0 0 0 0 0 -0 -0 -0 -0 -0 -0 -0 0 0 0 -0 0 -0 0 0 0 -0 0 0 0 0 -0 0 0 0 0 0 0 0 0 0 0 0 0 0 0 0 0 0
-0 0 0 0 0 0 0 -0 -0 -0 -0 -0 -0 0 0 -0 -0 0 0 0 -0 -0 -0 -0 0 -0 -0 -0 0 0 0 0 0 0 0 0 0 0 0 0 0 0 0 0
0 0 0 -0 -0 0 -0 -0 -0 -0 -0 -0 -0 0 0 0 0 0 0 0 0 -0 -0 -0 0 -0 -0 -0 -0 -0 0 0 0 0 0 0 0 0 0 0 0 0 0 0
0 0 -0 -0 -0 0 -0 -0 -0 -0 -0 -0 0 0 0 0 0 0 0 0 0 -0 -0 -0 0 -0 -0 -0 0 0 0 0 0 0 0 0 0 0 0 0 0 0 0 0
0 0 -0 -0 -0 -0 -0 -0 -0 -0 -0 0 0 0 0 0 0 0 0 0 0 -0 0 0 -0 -0 0 0 -0 0 0 0 0 0 0 0 0 0 0 0 0 0 0 0
-0 0 -0 0 -0 -0 -0 -0 -0 0 0 0 0 0 0 0 0 0 0 0 0 0 -0 -0 -0 -0 -0 -0 -0 0 0 0 0 0 0 0 0 0 0 0 0 0 0 0
0 -0 0 0 -0 -0 -0 -0 -0 0 -0 -0 0 0 0 0 0 0 0 0 0 -0 -0 -0 -0 -0 0 0 0 0 0 -0 -0 0 0 0 0 0 0 0 0 0 0 0
0 0 0 -0 -0 -0 -0 -0 0 -0 0 0 0 0 0 -0 -0 -0 0 0 -0 0 -0 -0 -0 -0 0 0 0 0 0 0 0 0 0 0 -0 -0 0 0 0 0 0 0
-0 -0 -0 -0 -0 -0 -0 -0 0 0 -0 0 0 0 -0 -0 -0 -0 -0 -0 -0 -0 0 -0 -0 -0 0 0 0 0 0 0 0 0 0 0 0 0 0 0 0 0 0 0
-0 -0 -0 -0 -0 0 0 -0 0 -0 -0 -0 0 -0 -0 -0 -0 -0 -0 0 0 -0 0 -0 -0 -0 0 0 0 0 0 0 0 0 0 0 0 0 0 0 0 0 0 0
-0 -0 -0 0 0 0 0 0 -0 -0 -0 -0 -0 0 -0 -0 -0 -0 -0 0 0 0 0 -0 0 0 0 0 0 0 0 0 0 0 0 0 0 0 0 0 0 0 0 0
0 0 0 0 0 0 0 0 0 0 0 0 0 0 -0 -0 -0 -0 -0 -0 -0 -0 -0 -0 0 0 0 0 0 0 0 0 0 0 0 0 0 0 0 0 0 0 0 0
-0 -0 0 0 0 0 0 0 0 0 0 -0 0 0 -0 -0 -0 -0 -0 -0 -0 -0 -0 0 0 -0 0 0 0 0 0 0 0 0 0 0 0 0 0 0 0 0 0 0
-0 -0 0 0 0 -0 -0 0 0 0 0 0 0 0 -0 -0 -0 -0 -0 -0 -0 -0 -0 -0 -0 -0 -0 0 0 0 0 0 0 0 0 0 0 0 0 0 0 0 0 0
-0 0 0 -0 0 0 -0 -0 -0 0 0 -0 0 0 -0 -0 -0 -0 -0 -0 -0 -0 -0 -0 -0 -0 -0 0 0 0 0 0 0 0 0 0 0 0 0 0 0 0 0 0
-0 -0 0 -0 -0 -0 -0 -0 -0 0 0 -0 0 0 0 -0 -0 -0 -0 -0 -0 -0 -0 -0 -0 -0 0 0 0 0 0 0 0 0 0 0 0 0 0 0 0 0 0 0
0 0 -0 -0 -0 -0 0 0 -0 0 0 0 -0 -0 0 0 -0 -0 -0 -0 -0 -0 -0 -0 -0 -0 0 0 0 0 -0 0 0 0 0 0 0 0 0 0 0 0 0 0
-0 -0 -0 -0 -0 -0 -0 -0 -0 -0 -0 0 0 0 0 0 -0 -0 -0 -0 -0 -0 -0 -0 -0 -0 -0 -0 -0 -0 -0 -0 -0 0 0 0 0 0 0 0 0 0 0 0
Wind_Speed_500mb
32 33 34 36 37 43 43 30 26 32 43 42 38 34 27 28 29 32 39 40 41 42 44 46 49 49 47 45 44 43 41 40 36 30 31 52 43 47 44 49 52 37 44 50
26 30 26 35 41 41 43 45 46 45 46 37 17 25 27 31 36 37 45 52 51 50 49 53 56 56 55 55 51 47 49 47 45 38 37 35 40 55 51 58 75 77 57 55
24 18 21 30 25 22 24 29 29 32 28 28 28 25 33 41 44 52 57 52 54 52 61 63 61 60 63 59 56 56 57 54 52 47 47 44 39 34 36 66 84 70 70 76
17 13 20 6 5 8 15 16 15 23 28 25 28 37 44 50 59 59 56 61 63 67 70 67 65 65 65 64 66 64 64 62 57 55 55 51 45 45 44 45 52 69 86 86
8 14 27 33 6 9 13 21 21 22 20 28 46 58 62 54 54 60 70 73 71 73 72 68 71 72 74 80 84 82 71 67 64 62 62 58 57 55 54 55 57 59 56 56
10 8 8 7 9 5 13 17 14 17 30 35 50 33 34 58 71 77 76 76 74 73 78 80 84 78 84 81 74 70 74 79 78 75 72 68 64 61 59 59 61 61 62 63
18 10 13 6 4 6 10 7 27 36 45 54 38 42 78 78 73 70 75 75 82 79 79 71 78 81 80 68 75 72 70 66 66 67 72 71 67 65 64 64 63 63 66 70
12 11 15 7 6 9 26 38 36 51 57 59 63 68 74 77 78 76 83 80 79 81 72 76 81 78 71 72 73 65 66 63 67 73 67 62 64 64 65 65 65 66 70 74
10 5 4 11 16 26 25 34 52 56 58 58 67 73 75 80 81 85 81 79 75 84 84 73 83 67 67 74 63 62 66 69 67 66 64 64 68 70 67 67 69 72 74 77
15 4 7 19 25 18 31 48 55 57 58 60 67 71 77 80 81 85 84 82 90 67 77 88 72 62 65 65 66 68 72 72 72 75 76 74 76 71 71 72 72 74 74 75
24 19 24 14 21 40 49 51 54 58 59 61 65 72 78 82 84 84 85 81 73 89 85 87 73 66 62 63 69 70 67 72 75 76 76 78 82 86 86 87 82 72 74 76
6 19 17 33 44 49 51 58 57 58 63 64 65 76 82 84 86 85 79 90 86 81 78 79 77 74 69 67 65 70 75 73 74 74 76 79 81 83 85 86 85 88 91 78
19 27 30 41 41 49 52 53 56 56 59 66 70 75 82 87 76 93 86 82 80 84 78 77 78 78 72 68 63 65 73 77 77 77 80 78 77 79 79 81 85 87 92 88
16 24 33 37 49 46 47 49 51 58 59 61 72 78 77 81 89 86 82 82 79 79 78 76 73 69 62 60 59 61 65 71 77 82 82 83 79 75 78 74 76 82 82 87
15 25 36 43 42 44 42 48 57 60 64 70 75 74 76 85 88 89 83 81 83 82 76 69 70 68 56 52 54 59 68 73 72 74 75 74 75 77 75 73 67 73 78 73
27 33 35 38 39 41 47 52 57 65 66 75 74 77 84 83 84 84 80 83 83 84 67 62 62 63 59 59 57 56 52 51 48 49 48 47 49 55 62 64 66 82 54 70
31 33 35 40 41 47 48 51 58 63 70 72 77 85 83 83 81 80 80 82 72 65 68 71 69 59 50 44 43 43 38 34 20 33 22 21 27 39 49 54 54 56 72 65
25 26 31 36 41 44 47 53 58 62 66 72 77 79 79 82 81 86 87 79 75 72 68 69 60 53 45 40 38 36 32 16 18 11 9 10 10 8 23 40 43 48 55 63
25 29 34 34 34 38 45 53 58 61 65 69 71 73 73 79 78 82 81 76 71 82 76 64 55 55 50 42 35 33 33 20 11 26 26 23 22 31 39 40 47 53 54 51
28 29 27 29 33 38 44 49 57 59 61 64 64 65 71 85 84 82 77 72 69 74 69 62 60 58 43 38 32 32 30 28 34 30 31 30 28 32 34 36 35 39 47 58
24 27 28 31 35 36 39 48 56 58 62 57 60 66 74 80 80 79 80 81 78 70 64 60 58 54 43 43 37 30 29 30 35 36 35 37 40 41 45 44 42 43 48 46
25 28 31 33 36 39 42 49 54 54 58 56 57 62 73 82 81 80 66 71 74 68 64 59 54 47 39 36 34 34 35 34 37 41 45 44 42 47 50 53 53 52 45 45
25 29 32 35 36 38 41 47 52 52 57 56 59 68 69 79 76 84 91 75 68 61 57 53 45 39 30 33 37 40 42 40 44 39 39 44 50 47 46 48 49 46 44 45
26 29 31 32 33 37 45 51 49 48 53 51 51 57 66 87 79 69 63 63 60 55 50 50 45 35 23 29 34 44 39 40 43 40 38 43 44 42 43 41 39 37 34 32
26 28 27 32 35 39 44 50 48 50 54 55 54 56 58 72 74 72 66 63 58 52 52 52 44 35 28 32 29 29 31 33 41 48 52 49 44 42 42 46 48 48 46 45
27 30 28 29 33 38 44 46 48 50 54 58 57 57 55 67 79 71 65 61 59 55 56 54 48 42 33 34 39 43 45 38 44 47 49 53 52 52 54 55 58 58 57 54
23 30 29 31 33 38 41 43 46 52 51 56 55 56 55 58 75 77 72 67 63 60 57 56 51 45 40 28 38 41 43 45 45 46 49 52 53 51 53 55 57 58 59 60
Wind_Direction_500mb
272 277 275 274 259 254 251 236 259 283 287 289 295 301 314 294 290 292 296 298 301 301 301 297 299 299 296 293 292 297 295 290 300 274 285 253 264 239 240 240 249 261 237 234
271 268 258 260 259 260 262 262 255 259 271 278 315 296 287 291 302 302 300 300 299 297 297 297 295 293 293 291 291 289 287 283 278 279 272 266 252 250 246 248 254 258 271 241
271 279 290 281 265 261 270 260 255 262 286 327 302 300 302 309 300 301 298 300 297 296 299 298 295 291 288 287 288 289 283 280 278 276 271 268 265 259 241 231 235 234 241 248
276 301 266 52 30 327 301 300 275 262 279 305 319 314 306 302 296 296 304 303 296 295 297 295 294 292 288 282 281 284 280 272 270 267 264 262 257 251 245 239 235 234 230 239
253 231 278 279 190 297 328 304 304 309 315 322 321 312 294 296 304 303 302 298 296 294 294 293 292 291 290 285 277 276 273 266 264 264 262 259 254 247 241 238 235 235 234 237
203 247 271 66 123 360 318 279 57 348 325 316 311 298 294 309 307 302 300 296 297 294 290 290 288 287 287 281 275 270 269 265 264 260 257 256 253 250 245 241 239 238 237 236
228 246 269 68 100 306 263 4 327 327 311 307 304 294 301 304 299 295 295 294 295 295 290 284 292 289 283 273 273 272 271 266 265 258 253 251 251 246 243 242 239 237 239 236
220 230 255 109 241 268 343 322 324 311 310 311 301 298 300 300 302 301 301 299 296 294 289 285 294 289 276 273 275 272 268 264 265 259 254 247 246 244 239 236 236 236 235 235
232 248 260 299 307 312 314 309 309 313 310 309 305 304 303 303 303 299 303 301 300 293 287 286 295 284 277 277 273 273 269 266 264 259 253 250 248 244 241 238 237 237 235 234
279 112 300 300 307 301 316 311 311 309 310 309 304 304 306 305 303 303 302 300 301 293 289 295 294 282 275 275 273 271 269 266 263 259 255 253 247 243 239 235 233 234 234 234
280 309 325 293 314 319 316 315 312 310 310 308 308 304 306 311 307 307 306 301 300 305 295 294 294 286 281 280 284 280 276 270 267 263 258 255 251 246 242 238 233 230 229 230
282 342 324 304 312 316 316 317 315 317 311 309 307 306 309 308 308 307 306 302 307 305 301 297 295 292 288 285 281 277 276 272 266 262 259 257 253 250 250 245 240 239 231 228
287 313 305 303 306 318 317 316 316 312 308 310 310 312 310 308 310 313 312 309 306 305 304 303 301 298 297 295 288 279 276 275 273 269 264 256 250 244 243 245 247 244 240 237
299 308 309 313 317 320 318 318 317 313 312 313 313 313 313 313 316 316 315 315 313 311 309 307 305 301 301 296 291 286 278 273 273 271 265 260 255 248 241 241 234 236 238 232
300 309 304 311 317 320 322 323 320 320 318 317 320 320 319 319 320 321 323 321 319 318 317 314 311 309 309 300 290 284 280 280 281 280 273 263 257 251 243 242 231 230 231 231
312 312 315 319 322 325 327 328 323 321 323 323 324 325 321 321 322 324 326 327 325 324 328 326 320 319 314 306 302 299 297 297 297 290 285 280 268 252 241 234 229 225 214 215
319 325 330 327 327 326 327 325 323 323 325 327 327 325 325 327 328 330 333 334 333 335 337 335 332 333 329 326 319 318 317 327 331 312 307 297 283 263 240 218 211 208 212 206
312 313 319 321 322 323 325 327 325 329 329 328 327 329 329 333 333 335 338 342 345 349 351 347 344 347 351 353 350 348 344 13 39 41 9 4 23 80 169 184 185 187 185 199
318 317 319 322 324 325 328 327 330 332 332 331 332 333 333 335 338 342 345 348 349 345 355 357 7 9 8 15 21 23 35 55 69 57 62 67 83 112 134 150 159 175 186 187
324 325 329 328 329 332 331 333 334 335 336 335 336 337 338 347 349 350 353 351 352 352 352 2 11 18 27 25 32 49 59 63 69 68 73 77 84 99 115 129 143 150 148 144
343 340 340 336 333 336 337 338 338 340 339 341 341 341 342 349 354 357 355 351 1 2 6 13 15 18 32 33 37 48 57 79 82 89 90 91 92 97 107 110 119 128 136 141
352 348 348 341 339 339 343 342 343 344 343 346 347 348 349 355 355 357 5 356 360 5 12 14 14 18 29 46 49 55 54 68 80 86 99 95 101 110 117 117 120 128 131 138
353 348 346 343 341 341 344 346 348 348 349 351 352 350 353 357 360 356 355 7 7 13 17 16 15 21 29 53 67 69 63 65 74 81 92 101 110 118 125 132 134 140 144 152
354 354 349 347 351 352 352 349 351 352 354 355 357 355 354 358 3 7 7 9 11 18 20 21 25 31 42 67 76 83 77 79 77 77 84 93 98 109 113 118 119 122 129 140
1 1 359 357 0 0 355 353 355 355 359 360 2 359 359 3 6 7 12 17 19 23 28 30 37 42 55 77 89 98 100 84 83 90 90 94 98 112 117 118 126 130 134 133
6 10 8 5 4 2 360 360 1 359 2 4 4 1 2 1 12 16 21 25 26 29 35 36 40 44 53 81 94 100 106 108 102 101 100 100 101 102 108 112 116 122 132 135
9 12 15 14 10 9 3 5 6 4 5 8 4 5 6 6 11 21 24 28 32 34 39 41 44 54 52 69 97 105 110 109 111 112 113 111 113 114 116 114 116 118 121 124
Wind_Speed_850mb
32 33 34 36 37 43 43 30 26 32 43 42 38 34 27 28 29 32 39 40 41 42 44 46 49 49 47 45 44 43 41 40 36 30 31 52 43 47 44 49 52 37 44 50
26 30 26 35 41 41 43 45 46 45 46 37 17 25 27 31 36 37 45 52 51 50 49 53 56 56 55 55 51 47 49 47 45 38 37 35 40 55 51 58 75 77 57 55
24 18 21 30 25 22 24 29 29 32 28 28 28 25 33 41 44 52 57 52 54 52 61 63 61 60 63 59 56 56 57 54 52 47 47 44 39 34 36 66 84 70 70 76
17 13 20 6 5 8 15 16 15 23 28 25 28 37 44 50 59 59 56 61 63 67 70 67 65 65 65 64 66 64 64 62 57 55 55 51 45 45 44 45 52 69 86 86
8 14 27 33 6 9 13 21 21 22 20 28 46 58 62 54 54 60 70 73 71 73 72 68 71 72 74 80 84 82 71 67 64 62 62 58 57 55 54 55 57 59 56 56
10 8 8 7 9 5 13 17 14 17 30 35 50 33 34 58 71 77 76 76 74 73 78 80 84 78 84 81 74 70 74 79 78 75 72 68 64 61 59 59 61 61 62 63
18 10 13 6 4 6 10 7 27 36 45 54 38 42 78 78 73 70 75 75 82 79 79 71 78 81 80 68 75 72 70 66 66 67 72 71 67 65 64 64 63 63 66 70
12 11 15 7 6 9 26 38 36 51 57 59 63 68 74 77 78 76 83 80 79 81 72 76 81 78 71 72 73 65 66 63 67 73 67 62 64 64 65 65 65 66 70 74
10 5 4 11 16 26 25 34 52 56 58 58 67 73 75 80 81 85 81 79 75 84 84 73 83 67 67 74 63 62 66 69 67 66 64 64 68 70 67 67 69 72 74 77
15 4 7 19 25 18 31 48 55 57 58 60 67 71 77 80 81 85 84 82 90 67 77 88 72 62 65 65 66 68 72 72 72 75 76 74 76 71 71 72 72 74 74 75
24 19 24 14 21 40 49 51 54 58 59 61 65 72 78 82 84 84 85 81 73 89 85 87 73 66 62 63 69 70 67 72 75 76 76 78 82 86 86 87 82 72 74 76
6 19 17 33 44 49 51 58 57 58 63 64 65 76 82 84 86 85 79 90 86 81 78 79 77 74 69 67 65 70 75 73 74 74 76 79 81 83 85 86 85 88 91 78
19 27 30 41 41 49 52 53 56 56 59 66 70 75 82 87 76 93 86 82 80 84 78 77 78 78 72 68 63 65 73 77 77 77 80 78 77 79 79 81 85 87 92 88
16 24 33 37 49 46 47 49 51 58 59 61 72 78 77 81 89 86 82 82 79 79 78 76 73 69 62 60 59 61 65 71 77 82 82 83 79 75 78 74 76 82 82 87
15 25 36 43 42 44 42 48 57 60 64 70 75 74 76 85 88 89 83 81 83 82 76 69 70 68 56 52 54 59 68 73 72 74 75 74 75 77 75 73 67 73 78 73
27 33 35 38 39 41 47 52 57 65 66 75 74 77 84 83 84 84 80 83 83 84 67 62 62 63 59 59 57 56 52 51 48 49 48 47 49 55 62 64 66 82 54 70
31 33 35 40 41 47 48 51 58 63 70 72 77 85 83 83 81 80 80 82 72 65 68 71 69 59 50 44 43 43 38 34 20 33 22 21 27 39 49 54 54 56 72 65
25 26 31 36 41 44 47 53 58 62 66 72 77 79 79 82 81 86 87 79 75 72 68 69 60 53 45 40 38 36 32 16 18 11 9 10 10 8 23 40 43 48 55 63
25 29 34 34 34 38 45 53 58 61 65 69 71 73 73 79 78 82 81 76 71 82 76 64 55 55 50 42 35 33 33 20 11 26 26 23 22 31 39 40 47 53 54 51
28 29 27 29 33 38 44 49 57 59 61 64 64 65 71 85 84 82 77 72 69 74 69 62 60 58 43 38 32 32 30 28 34 30 31 30 28 32 34 36 35 39 47 58
24 27 28 31 35 36 39 48 56 58 62 57 60 66 74 80 80 79 80 81 78 70 64 60 58 54 43 43 37 30 29 30 35 36 35 37 40 41 45 44 42 43 48 46
25 28 31 33 36 39 42 49 54 54 58 56 57 62 73 82 81 80 66 71 74 68 64 59 54 47 39 36 34 34 35 34 37 41 45 44 42 47 50 53 53 52 45 45
25 29 32 35 36 38 41 47 52 52 57 56 59 68 69 79 76 84 91 75 68 61 57 53 45 39 30 33 37 40 42 40 44 39 39 44 50 47 46 48 49 46 44 45
26 29 31 32 33 37 45 51 49 48 53 51 51 57 66 87 79 69 63 63 60 55 50 50 45 35 23 29 34 44 39 40 43 40 38 43 44 42 43 41 39 37 34 32
26 28 27 32 35 39 44 50 48 50 54 55 54 56 58 72 74 72 66 63 58 52 52 52 44 35 28 32 29 29 31 33 41 48 52 49 44 42 42 46 48 48 46 45
27 30 28 29 33 38 44 46 48 50 54 58 57 57 55 67 79 71 65 61 59 55 56 54 48 42 33 34 39 43 45 38 44 47 49 53 52 52 54 55 58 58 57 54
23 30 29 31 33 38 41 43 46 52 51 56 55 56 55 58 75 77 72 67 63 60 57 56 51 45 40 28 38 41 43 45 45 46 49 52 53 51 53 55 57 58 59 60
Wind_Direction_850mb
272 277 275 274 259 254 251 236 259 283 287 289 295 301 314 294 290 292 296 298 301 301 301 297 299 299 296 293 292 297 295 290 300 274 285 253 264 239 240 240 249 261 237 234
271 268 258 260 259 260 262 262 255 259 271 278 315 296 287 291 302 302 300 300 299 297 297 297 295 293 293 291 291 289 287 283 278 279 272 266 252 250 246 248 254 258 271 241
271 279 290 281 265 261 270 260 255 262 286 327 302 300 302 309 300 301 298 300 297 296 299 298 295 291 288 287 288 289 283 280 278 276 271 268 265 259 241 231 235 234 241 248
276 301 266 52 30 327 301 300 275 262 279 305 319 314 306 302 296 296 304 303 296 295 297 295 294 292 288 282 281 284 280 272 270 267 264 262 257 251 245 239 235 234 230 239
253 231 278 279 190 297 328 304 304 309 315 322 321 312 294 296 304 303 302 298 296 294 294 293 292 291 290 285 277 276 273 266 264 264 262 259 254 247 241 238 235 235 234 237
203 247 271 66 123 360 318 279 57 348 325 316 311 298 294 309 307 302 300 296 297 294 290 290 288 287 287 281 275 270 269 265 264 260 257 256 253 250 245 241 239 238 237 236
228 246 269 68 100 306 263 4 327 327 311 307 304 294 301 304 299 295 295 294 295 295 290 284 292 289 283 273 273 272 271 266 265 258 253 251 251 246 243 242 239 237 239 236
220 230 255 109 241 268 343 322 324 311 310 311 301 298 300 300 302 301 301 299 296 294 289 285 294 289 276 273 275 272 268 264 265 259 254 247 246 244 239 236 236 236 235 235
232 248 260 299 307 312 314 309 309 313 310 309 305 304 303 303 303 299 303 301 300 293 287 286 295 284 277 277 273 273 269 266 264 259 253 250 248 244 241 238 237 237 235 234
279 112 300 300 307 301 316 311 311 309 310 309 304 304 306 305 303 303 302 300 301 293 289 295 294 282 275 275 273 271 269 266 263 259 255 253 247 243 239 235 233 234 234 234
280 309 325 293 314 319 316 315 312 310 310 308 308 304 306 311 307 307 306 301 300 305 295 294 294 286 281 280 284 280 276 270 267 263 258 255 251 246 242 238 233 230 229 230
282 342 324 304 312 316 316 317 315 317 311 309 307 306 309 308 308 307 306 302 307 305 301 297 295 292 288 285 281 277 276 272 266 262 259 257 253 250 250 245 240 239 231 228
287 313 305 303 306 318 317 316 316 312 308 310 310 312 310 308 310 313 312 309 306 305 304 303 301 298 297 295 288 279 276 275 273 269 264 256 250 244 243 245 247 244 240 237
299 308 309 313 317 320 318 318 317 313 312 313 313 313 313 313 316 316 315 315 313 311 309 307 305 301 301 296 291 286 278 273 273 271 265 260 255 248 241 241 234 236 238 232
300 309 304 311 317 320 322 323 320 320 318 317 320 320 319 319 320 321 323 321 319 318 317 314 311 309 309 300 290 284 280 280 281 280 273 263 257 251 243 242 231 230 231 231
312 312 315 319 322 325 327 328 323 321 323 323 324 325 321 321 322 324 326 327 325 324 328 326 320 319 314 306 302 299 297 297 297 290 285 280 268 252 241 234 229 225 214 215
319 325 330 327 327 326 327 325 323 323 325 327 327 325 325 327 328 330 333 334 333 335 337 335 332 333 329 326 319 318 317 327 331 312 307 297 283 263 240 218 211 208 212 206
312 313 319 321 322 323 325 327 325 329 329 328 327 329 329 333 333 335 338 342 345 349 351 347 344 347 351 353 350 348 344 13 39 41 9 4 23 80 169 184 185 187 185 199
318 317 319 322 324 325 328 327 330 332 332 331 332 333 333 335 338 342 345 348 349 345 355 357 7 9 8 15 21 23 35 55 69 57 62 67 83 112 134 150 159 175 186 187
324 325 329 328 329 332 331 333 334 335 336 335 336 337 338 347 349 350 353 351 352 352 352 2 11 18 27 25 32 49 59 63 69 68 73 77 84 99 115 129 143 150 148 144
343 340 340 336 333 336 337 338 338 340 339 341 341 341 342 349 354 357 355 351 1 2 6 13 15 18 32 33 37 48 57 79 82 89 90 91 92 97 107 110 119 128 136 141
352 348 348 341 339 339 343 342 343 344 343 346 347 348 349 355 355 357 5 356 360 5 12 14 14 18 29 46 49 55 54 68 80 86 99 95 101 110 117 117 120 128 131 138
353 348 346 343 341 341 344 346 348 348 349 351 352 350 353 357 360 356 355 7 7 13 17 16 15 21 29 53 67 69 63 65 74 81 92 101 110 118 125 132 134 140 144 152
354 354 349 347 351 352 352 349 351 352 354 355 357 355 354 358 3 7 7 9 11 18 20 21 25 31 42 67 76 83 77 79 77 77 84 93 98 109 113 118 119 122 129 140
1 1 359 357 0 0 355 353 355 355 359 360 2 359 359 3 6 7 12 17 19 23 28 30 37 42 55 77 89 98 100 84 83 90 90 94 98 112 117 118 126 130 134 133
6 10 8 5 4 2 360 360 1 359 2 4 4 1 2 1 12 16 21 25 26 29 35 36 40 44 53 81 94 100 106 108 102 101 100 100 101 102 108 112 116 122 132 135
9 12 15 14 10 9 3 5 6 4 5 8 4 5 6 6 11 21 24 28 32 34 39 41 44 54 52 69 97 105 110 109 111 112 113 111 113 114 116 114 116 118 121 124